FW1219 Weather Reports


Display with metric or nautical units.
time (UTC)temp
F
wind
direction
speed
MPH
gust
MPH
rain 1hr
in
rain 24hr
in
rain mn
in
humidity
%
barometer
mb
20240522134912 68 293 0.0 0.0 0.00 0.00 0.00 99 1014.9
20240522134411 66 225 2.0 0.0 0.00 0.00 0.00 99 1014.9
20240522133911 63 293 2.0 0.0 0.00 0.00 0.00 99 1015.6
20240522133417 61 293 0.0 0.0 0.00 0.00 0.00 99 1015.6
20240522132913 60 270 0.0 0.0 0.00 0.00 0.00 99 1015.9
20240522132413 59 293 0.0 0.0 0.00 0.00 0.00 99 1015.9
20240522131913 59 270 0.0 0.0 0.00 0.00 0.00 99 1015.6
20240522131414 59 270 0.0 0.0 0.00 0.00 0.00 99 1015.9
20240522130915 59 248 0.0 0.0 0.00 0.00 0.00 99 1015.2
20240522130411 59 270 0.0 0.0 0.00 0.00 0.00 99 1014.6
20240522125913 59 270 0.0 0.0 0.00 0.00 0.00 99 1014.6
20240522125412 59 270 0.0 0.0 0.00 0.00 0.00 99 1014.6
20240522124913 58 270 0.0 0.0 0.00 0.00 0.00 99 1014.9
20240522124415 57 248 0.0 0.0 0.00 0.00 0.00 99 1014.6
20240522123916 57 270 0.0 0.0 0.00 0.00 0.00 99 1014.6
20240522123414 56 270 0.0 0.0 0.00 0.00 0.00 99 1014.6
20240522122914 56 270 0.0 0.0 0.00 0.00 0.00 99 1014.6
20240522122415 55 270 0.0 0.0 0.00 0.00 0.00 99 1014.9
20240522121913 55 270 0.0 0.0 0.00 0.00 0.00 99 1014.6
20240522121413 55 270 0.0 0.0 0.00 0.00 0.00 99 1014.9
20240522120915 54 270 0.0 0.0 0.00 0.00 0.00 99 1014.9
20240522120414 54 270 0.0 0.0 0.00 0.00 0.00 99 1014.9
20240522115914 54 270 0.0 0.0 0.00 0.00 0.00 99 1014.9
20240522115415 54 270 0.0 0.0 0.00 0.00 0.00 99 1015.2
20240522114914 53 270 0.0 0.0 0.00 0.00 0.00 99 1015.2
20240522114413 53 270 0.0 0.0 0.00 0.00 0.00 99 1015.2
20240522113915 53 248 0.0 0.0 0.00 0.00 0.00 99 1014.6
20240522113415 53 270 0.0 0.0 0.00 0.00 0.00 99 1014.9
20240522112915 53 248 0.0 0.0 0.00 0.00 0.00 99 1014.9
20240522112415 53 270 0.0 0.0 0.00 0.00 0.00 99 1014.9
20240522111916 52 248 0.0 0.0 0.00 0.00 0.00 99 1014.9
20240522111417 52 270 0.0 0.0 0.00 0.00 0.00 99 1015.2
20240522110913 52 270 0.0 0.0 0.00 0.00 0.00 99 1014.9
20240522110414 52 270 0.0 0.0 0.00 0.00 0.00 99 1014.9
20240522105915 52 270 0.0 0.0 0.00 0.00 0.00 99 1014.9
20240522105412 52 270 0.0 0.0 0.00 0.00 0.00 99 1014.9
20240522104913 52 270 0.0 0.0 0.00 0.00 0.00 99 1014.9
20240522104414 52 270 0.0 0.0 0.00 0.00 0.00 99 1014.9
20240522103914 52 270 0.0 0.0 0.00 0.00 0.00 99 1014.6
20240522103412 52 225 0.0 0.0 0.00 0.00 0.00 99 1014.2
20240522102912 52 248 0.0 0.0 0.00 0.00 0.00 99 1014.2
20240522102415 52 270 0.0 0.0 0.00 0.00 0.00 99 1014.2
20240522101913 52 270 0.0 0.0 0.00 0.00 0.00 99 1014.2
20240522101415 52 270 0.0 0.0 0.00 0.00 0.00 99 1013.9
20240522100915 52 248 0.0 0.0 0.00 0.00 0.00 99 1014.2
20240522100413 52 270 0.0 0.0 0.00 0.00 0.00 99 1013.9
20240522095912 52 270 0.0 0.0 0.00 0.00 0.00 99 1013.9
20240522095412 52 270 0.0 0.0 0.00 0.00 0.00 99 1013.9
20240522094913 52 270 0.0 0.0 0.00 0.00 0.00 99 1013.5
20240522094413 52 270 0.0 0.0 0.00 0.00 0.00 99 1013.5
20240522093914 53 248 0.0 0.0 0.00 0.00 0.00 99 1013.2
20240522093413 53 270 0.0 0.0 0.00 0.00 0.00 99 1013.2
20240522092914 53 270 0.0 0.0 0.00 0.00 0.00 99 1013.2
20240522092415 53 270 0.0 0.0 0.00 0.00 0.00 99 1013.2
20240522091915 53 270 0.0 0.0 0.00 0.00 0.00 99 1012.9
20240522091415 53 270 0.0 0.0 0.00 0.00 0.00 99 1012.9
20240522090912 53 270 0.0 0.0 0.00 0.00 0.00 99 1012.9
20240522090415 53 270 0.0 0.0 0.00 0.00 0.00 99 1012.9
20240522085913 53 270 0.0 0.0 0.00 0.00 0.00 99 1012.9
20240522085412 53 270 0.0 0.0 0.00 0.00 0.00 99 1012.9
20240522084914 53 248 0.0 0.0 0.00 0.00 0.00 99 1012.5
20240522084415 53 270 0.0 0.0 0.00 0.00 0.00 99 1012.2
20240522083913 53 270 0.0 0.0 0.00 0.00 0.00 99 1011.9
20240522083415 53 248 0.0 0.0 0.00 0.00 0.00 99 1011.9
20240522082915 54 248 0.0 0.0 0.00 0.00 0.00 99 1011.9
20240522082415 54 270 0.0 0.0 0.00 0.00 0.00 99 1011.5
20240522081918 54 270 0.0 0.0 0.00 0.00 0.00 99 1011.5
20240522081416 54 225 0.0 0.0 0.00 0.00 0.00 99 1011.5
20240522080913 54 270 0.0 0.0 0.00 0.00 0.00 99 1011.2
20240522080416 54 270 0.0 0.0 0.00 0.00 0.00 99 1011.2
20240522075915 54 270 0.0 0.0 0.00 0.00 0.00 99 1011.2
20240522075414 54 270 0.0 0.0 0.00 0.00 0.00 99 1011.5
20240522074916 54 270 0.0 0.0 0.00 0.00 0.00 99 1011.9
20240522074415 54 270 0.0 0.0 0.00 0.00 0.00 99 1011.9
20240522073916 54 225 0.0 0.0 0.00 0.00 0.00 99 1011.9
20240522073415 54 270 0.0 0.0 0.00 0.00 0.00 99 1011.9
20240522072916 55 270 0.0 0.0 0.00 0.00 0.00 99 1011.5
20240522072413 55 270 0.0 0.0 0.00 0.00 0.00 99 1011.5
20240522071916 55 270 0.0 0.0 0.00 0.00 0.00 99 1011.9
20240522071413 55 270 0.0 0.0 0.00 0.00 0.00 99 1011.9
20240522070916 55 203 0.0 0.0 0.00 0.00 0.00 99 1011.9
20240522070413 55 270 0.0 0.0 0.00 0.00 0.00 99 1012.2
20240522065913 55 248 0.0 0.0 0.00 0.00 0.00 99 1012.2
20240522065413 56 270 0.0 0.0 0.00 0.00 0.00 99 1011.9
20240522064912 56 225 0.0 0.0 0.00 0.00 0.00 99 1011.9
20240522064417 56 270 0.0 0.0 0.00 0.00 0.00 99 1011.5
20240522063916 56 270 0.0 0.0 0.00 0.00 0.00 99 1011.5
20240522063414 56 270 0.0 0.0 0.00 0.00 0.00 99 1011.5
20240522062916 56 270 0.0 0.0 0.00 0.00 0.00 99 1011.5
20240522062414 56 270 0.0 0.0 0.00 0.00 0.00 99 1011.9
20240522061917 56 270 0.0 0.0 0.00 0.00 0.00 99 1011.9
20240522061413 56 270 0.0 0.0 0.00 0.00 0.00 99 1011.9
20240522061012 56 270 0.0 0.0 0.00 0.00 0.00 99 1011.9
20240522055912 56 270 0.0 0.0 0.00 0.00 0.00 99 1012.2
20240522055414 56 248 0.0 0.0 0.00 0.00 0.00 99 1012.2
20240522054912 56 248 2.0 0.0 0.00 0.00 0.00 99 1011.9
20240522054412 56 270 0.0 0.0 0.00 0.00 0.00 99 1011.9
20240522053914 56 270 1.0 0.0 0.00 0.00 0.00 99 1011.9
20240522053424 56 270 0.0 0.0 0.00 0.00 0.00 99 1011.9
20240522052913 56 270 0.0 0.0 0.00 0.00 0.00 99 1011.9
20240522052412 56 248 0.0 0.0 0.00 0.00 0.00 99 1011.9
20240522051915 56 270 0.0 0.0 0.00 0.00 0.00 99 1011.9
20240522051413 56 270 0.0 0.0 0.00 0.00 0.00 99 1011.5
20240522050913 56 270 0.0 0.0 0.00 0.00 0.00 99 1011.5
20240522050413 56 270 0.0 0.0 0.00 0.00 0.00 99 1011.2
20240522045916 56 270 0.0 0.0 0.00 0.00 0.28 99 1011.2
20240522045414 56 270 0.0 0.0 0.00 0.00 0.28 99 1011.2
20240522044913 56 270 0.0 0.0 0.00 0.00 0.28 99 1011.2
20240522044415 57 270 0.0 0.0 0.00 0.00 0.28 99 1011.2
20240522043916 57 270 0.0 0.0 0.00 0.00 0.28 99 1010.8
20240522043412 57 270 0.0 0.0 0.00 0.00 0.28 99 1010.8
20240522042916 57 270 0.0 0.0 0.00 0.00 0.28 99 1010.8
20240522042416 57 270 0.0 0.0 0.00 0.00 0.28 99 1010.8
20240522041915 57 270 0.0 0.0 0.00 0.00 0.28 99 1010.5
20240522041414 57 270 0.0 0.0 0.00 0.00 0.28 99 1010.5
20240522040913 57 270 0.0 0.0 0.00 0.00 0.28 99 1010.5
20240522040413 57 270 0.0 0.0 0.00 0.00 0.28 99 1010.5
20240522035916 58 270 0.0 0.0 0.00 0.00 0.28 99 1010.8
20240522035417 58 270 0.0 0.0 0.00 0.00 0.28 99 1010.5
20240522034915 58 270 0.0 0.0 0.00 0.00 0.28 99 1010.5
20240522034416 59 270 0.0 0.0 0.00 0.00 0.28 99 1010.5
20240522033913 59 270 0.0 0.0 0.00 0.00 0.28 99 1010.5
20240522033413 59 248 0.0 0.0 0.00 0.00 0.28 99 1010.5
20240522032916 59 248 0.0 0.0 0.00 0.00 0.28 99 1010.5
20240522032411 60 248 0.0 0.0 0.00 0.00 0.28 99 1010.2
20240522031915 60 248 0.0 0.0 0.00 0.00 0.28 99 1010.2
20240522031417 60 248 0.0 0.0 0.00 0.00 0.28 99 1010.2
20240522030915 60 270 0.0 0.0 0.00 0.00 0.28 99 1010.2
20240522030414 61 270 0.0 0.0 0.00 0.00 0.28 99 1010.2
20240522025914 61 270 0.0 0.0 0.00 0.00 0.28 99 1010.2
20240522025414 61 248 0.0 0.0 0.00 0.00 0.28 99 1009.8
20240522024916 62 248 0.0 0.0 0.00 0.00 0.28 99 1009.8
20240522024414 62 270 0.0 0.0 0.00 0.00 0.28 99 1009.8
20240522023915 62 248 0.0 0.0 0.00 0.00 0.28 99 1009.8
20240522023415 63 270 0.0 0.0 0.00 0.00 0.28 99 1009.5
20240522022915 63 225 0.0 0.0 0.00 0.00 0.28 99 1009.5
20240522022414 63 270 0.0 0.0 0.00 0.00 0.28 99 1009.5
20240522021914 64 270 0.0 0.0 0.00 0.00 0.28 99 1009.5
20240522021414 64 270 0.0 0.0 0.00 0.00 0.28 99 1009.1
20240522020913 64 248 0.0 0.0 0.00 0.00 0.28 99 1009.1
20240522020415 64 270 0.0 0.0 0.00 0.00 0.28 99 1008.8
20240522015917 65 248 0.0 0.0 0.00 0.00 0.28 99 1008.8
20240522015413 65 270 0.0 0.0 0.00 0.00 0.28 99 1008.5
20240522014916 65 293 0.0 0.0 0.00 0.00 0.28 99 1008.5
20240522014415 66 270 0.0 0.0 0.00 0.00 0.28 99 1008.1
20240522013918 66 270 0.0 0.0 0.00 0.00 0.28 99 1008.5
20240522013413 66 270 0.0 0.0 0.00 0.00 0.28 99 1008.5
20240522012914 66 270 1.0 0.0 0.00 0.00 0.28 99 1008.1
20240522012413 67 248 0.0 0.0 0.00 0.00 0.28 99 1007.8
20240522011917 67 270 1.0 0.0 0.00 0.00 0.28 99 1007.8
20240522011412 68 270 0.0 0.0 0.00 0.00 0.28 99 1007.8
20240522010915 68 225 1.0 0.0 0.00 0.00 0.28 99 1007.8
20240522010415 69 270 1.0 0.0 0.00 0.00 0.28 99 1007.5
20240522005918 69 270 0.0 0.0 0.00 0.00 0.28 99 1007.8
20240522005414 69 270 1.0 0.0 0.00 0.00 0.28 99 1007.5
20240522004915 70 293 2.0 0.0 0.00 0.00 0.28 99 1007.1
20240522004413 70 270 1.0 0.0 0.00 0.00 0.28 99 1007.5
20240522003915 70 270 1.0 0.0 0.00 0.00 0.28 99 1007.1
20240522003413 70 180 5.0 0.0 0.00 0.00 0.28 99 1006.8
20240522002920 71 248 0.0 0.0 0.00 0.00 0.28 99 1006.8
20240522002415 71 270 1.0 0.0 0.00 0.00 0.28 99 1006.4
20240522001913 71 315 2.0 0.0 0.00 0.00 0.28 99 1006.4
20240522001414 72 203 2.0 0.0 0.00 0.00 0.28 99 1006.4
20240522000914 73 293 3.0 0.0 0.00 0.00 0.28 99 1006.4
20240522000413 73 270 2.0 0.0 0.00 0.00 0.28 99 1006.4
20240521235914 73 248 2.0 0.0 0.00 0.00 0.28 99 1006.4
20240521235427 73 203 2.0 0.0 0.00 0.00 0.28 99 1006.1
20240521234916 74 270 0.0 0.0 0.00 0.00 0.28 99 1005.8
20240521234417 74 158 2.0 0.0 0.00 0.00 0.28 99 1005.4
20240521233915 74 68 2.0 0.0 0.00 0.00 0.28 99 1005.4
20240521233413 74 270 0.0 0.0 0.00 0.00 0.28 99 1005.1
20240521232914 74 293 2.0 0.0 0.00 0.00 0.28 99 1005.1
20240521232414 75 135 2.0 0.0 0.00 0.00 0.28 99 1005.1
20240521231916 75 270 4.0 0.0 0.00 0.00 0.28 99 1004.7
20240521231417 75 0 6.0 0.0 0.00 0.00 0.28 99 1004.4
20240521230915 76 270 2.0 0.0 0.00 0.00 0.28 99 1004.4
20240521230414 76 270 4.0 0.0 0.00 0.00 0.28 99 1004.4
20240521225912 77 270 3.0 0.0 0.00 0.00 0.28 99 1004.4
20240521225412 78 315 5.0 0.0 0.00 0.00 0.28 99 1004.1
20240521224914 80 158 2.0 0.0 0.00 0.00 0.28 99 1004.1
20240521224416 81 203 4.0 0.0 0.00 0.00 0.28 99 1004.1
20240521223917 82 0 2.0 0.0 0.00 0.00 0.28 99 1004.1
20240521223417 83 248 3.0 0.0 0.00 0.00 0.28 99 1003.7
20240521222915 84 225 2.0 0.0 0.00 0.00 0.28 99 1003.4
20240521222414 85 0 7.0 0.0 0.00 0.00 0.28 99 1003.0
20240521221913 86 45 3.0 0.0 0.00 0.00 0.28 99 1003.0
20240521221421 86 270 5.0 0.0 0.00 0.00 0.28 99 1002.7
20240521220920 86 293 3.0 0.0 0.00 0.00 0.28 99 1002.7
20240521220416 86 270 5.0 0.0 0.00 0.00 0.28 99 1002.7
20240521215914 87 270 2.0 0.0 0.00 0.00 0.28 99 1002.0
20240521215414 87 225 4.0 0.0 0.00 0.00 0.28 99 1002.0
20240521214911 87 270 4.0 0.0 0.00 0.00 0.28 99 1002.0
20240521214414 87 23 3.0 0.0 0.00 0.00 0.28 99 1001.7
20240521213917 86 225 5.0 0.0 0.00 0.00 0.28 99 1001.4
20240521213415 84 270 4.0 0.0 0.00 0.00 0.28 99 1001.4
20240521212913 82 225 5.0 0.0 0.00 0.00 0.28 99 1001.4
20240521212411 81 270 2.0 0.0 0.00 0.00 0.28 99 1001.4
20240521211915 79 270 2.0 0.0 0.00 0.00 0.28 99 1001.4
20240521211412 78 270 3.0 0.0 0.00 0.00 0.28 99 1001.4
20240521210915 76 225 5.0 0.0 0.00 0.00 0.28 99 1001.0
20240521210412 75 248 2.0 0.0 0.00 0.00 0.28 99 1001.0
20240521205913 75 180 4.0 0.0 0.00 0.00 0.28 99 1001.0
20240521205414 75 270 3.0 0.0 0.00 0.00 0.28 99 1001.0
20240521204915 75 23 5.0 0.0 0.00 0.00 0.23 99 1000.7
20240521204413 78 203 4.0 0.0 0.00 0.00 0.11 99 1000.0
20240521203914 79 248 7.0 0.0 0.00 0.00 0.03 99 999.7
20240521203416 81 225 6.0 0.0 0.00 0.00 0.00 99 999.0
20240521202913 82 0 6.0 0.0 0.00 0.00 0.00 99 997.6
20240521202417 83 0 4.0 0.0 0.00 0.00 0.00 99 997.6
20240521201916 83 113 13.0 0.0 0.00 0.00 0.00 99 998.6
20240521201415 84 248 6.0 0.0 0.00 0.00 0.00 99 999.3
20240521200913 84 135 11.0 0.0 0.00 0.00 0.00 99 1000.0
20240521200415 85 158 6.0 0.0 0.00 0.00 0.00 99 1000.3
20240521195916 86 270 7.0 0.0 0.00 0.00 0.00 99 1000.7
20240521195814 87 293 11.0 0.0 0.00 0.00 0.00 99 1001.0
20240521195444 88 203 5.0 0.0 0.00 0.00 0.00 99 1000.7
20240521194413 87 158 10.0 0.0 0.00 0.00 0.00 99 1001.4
20240521193917 86 180 7.0 0.0 0.00 0.00 0.00 99 1001.4
20240521193415 87 135 11.0 0.0 0.00 0.00 0.00 99 1001.4
20240521192914 86 180 10.0 0.0 0.00 0.00 0.00 99 1001.7
20240521192415 86 270 8.0 0.0 0.00 0.00 0.00 99 1001.4
20240521191913 86 180 8.0 0.0 0.00 0.00 0.00 99 1001.7
20240521191413 85 68 9.0 0.0 0.00 0.00 0.00 99 1001.7
20240521190916 87 225 6.0 0.0 0.00 0.00 0.00 99 1001.4
20240521190413 87 180 9.0 0.0 0.00 0.00 0.00 99 1001.4
20240521185914 86 90 6.0 0.0 0.00 0.00 0.00 99 1001.4
20240521185415 86 113 12.0 0.0 0.00 0.00 0.00 99 1001.4
20240521184916 87 203 9.0 0.0 0.00 0.00 0.00 99 1001.4
20240521184413 87 270 5.0 0.0 0.00 0.00 0.00 99 1001.4
20240521183913 86 180 8.0 0.0 0.00 0.00 0.00 99 1001.4
20240521183415 87 180 14.0 0.0 0.00 0.00 0.00 99 1001.0
20240521182916 87 270 7.0 0.0 0.00 0.00 0.00 99 1001.4
20240521182415 88 203 8.0 0.0 0.00 0.00 0.00 99 1001.0
20240521181919 88 248 7.0 0.0 0.00 0.00 0.00 99 1001.0
20240521181416 90 293 6.0 0.0 0.00 0.00 0.00 99 1001.0
20240521180915 89 45 6.0 0.0 0.00 0.00 0.00 99 1001.0
20240521180413 88 113 10.0 0.0 0.00 0.00 0.00 99 1001.0
20240521175913 87 180 10.0 0.0 0.00 0.00 0.00 99 1001.4
20240521175413 89 180 10.0 0.0 0.00 0.00 0.00 99 1001.4
20240521174913 87 158 5.0 0.0 0.00 0.00 0.00 99 1001.4
20240521174414 88 113 4.0 0.0 0.00 0.00 0.00 99 1001.4
20240521173919 87 270 7.0 0.0 0.00 0.00 0.00 99 1001.7
20240521173413 87 225 6.0 0.0 0.00 0.00 0.00 99 1001.7
20240521172916 87 338 6.0 0.0 0.00 0.00 0.00 99 1001.7
20240521172413 85 225 8.0 0.0 0.00 0.00 0.00 99 1001.7
20240521171915 86 203 4.0 0.0 0.00 0.00 0.00 99 1002.0
20240521171416 86 203 9.0 0.0 0.00 0.00 0.00 99 1001.7
20240521170916 86 135 4.0 0.0 0.00 0.00 0.00 99 1001.7
20240521170415 85 23 10.0 0.0 0.00 0.00 0.00 99 1002.0
20240521165915 84 225 7.0 0.0 0.00 0.00 0.00 99 1002.0
20240521165417 84 68 3.0 0.0 0.00 0.00 0.00 99 1002.0
20240521164914 84 338 8.0 0.0 0.00 0.00 0.00 99 1002.0
20240521164413 84 135 4.0 0.0 0.00 0.00 0.00 99 1002.4
20240521163915 82 180 7.0 0.0 0.00 0.00 0.00 99 1002.4
20240521163415 82 180 6.0 0.0 0.00 0.00 0.00 99 1002.4
20240521162914 82 338 5.0 0.0 0.00 0.00 0.00 99 1002.4
20240521162414 83 225 6.0 0.0 0.00 0.00 0.00 99 1002.4
20240521161913 83 225 5.0 0.0 0.00 0.00 0.00 99 1002.4
20240521161421 83 45 7.0 0.0 0.00 0.00 0.00 99 1002.4
20240521160917 84 180 3.0 0.0 0.00 0.00 0.00 99 1002.7
20240521160418 84 225 6.0 0.0 0.00 0.00 0.00 99 1002.7
20240521155912 83 135 3.0 0.0 0.00 0.00 0.00 99 1002.7
20240521155414 82 158 6.0 0.0 0.00 0.00 0.00 99 1002.7
20240521154913 82 113 4.0 0.0 0.00 0.00 0.00 99 1002.7
20240521154412 81 203 3.0 0.0 0.00 0.00 0.00 99 1003.0
20240521153925 80 270 3.0 0.0 0.00 0.00 0.00 99 1003.0
20240521153415 80 293 3.0 0.0 0.00 0.00 0.00 99 1003.0
20240521152913 79 113 3.0 0.0 0.00 0.00 0.00 99 1003.0
20240521152442 79 270 3.0 0.0 0.00 0.00 0.00 99 1003.0
20240521151412 79 270 3.0 0.0 0.00 0.00 0.00 99 1003.0
20240521150915 79 68 2.0 0.0 0.00 0.00 0.00 99 1003.0
20240521150414 79 203 5.0 0.0 0.00 0.00 0.00 99 1003.0
20240521145913 79 135 7.0 0.0 0.00 0.00 0.00 99 1003.0
20240521145412 80 270 7.0 0.0 0.00 0.00 0.00 99 1003.0
20240521144914 81 135 5.0 0.0 0.00 0.00 0.00 99 1003.0
20240521144412 81 270 5.0 0.0 0.00 0.00 0.00 99 1003.0
20240521143914 80 113 3.0 0.0 0.00 0.00 0.00 99 1003.0
20240521143415 79 270 4.0 0.0 0.00 0.00 0.00 99 1003.0
20240521142913 78 158 5.0 0.0 0.00 0.00 0.00 99 1003.4
20240521142413 79 180 5.0 0.0 0.00 0.00 0.00 99 1003.4
20240521141913 79 248 3.0 0.0 0.00 0.00 0.00 99 1003.4
20240521141414 80 248 5.0 0.0 0.00 0.00 0.00 99 1003.4
20240521140911 80 135 8.0 0.0 0.00 0.00 0.00 99 1003.0
20240521140411 80 270 4.0 0.0 0.00 0.00 0.00 99 1003.4
20240521135911 80 225 7.0 0.0 0.00 0.00 0.00 99 1003.0
20240521135414 79 158 6.0 0.0 0.00 0.00 0.00 99 1003.0